Change the Weather History Date:

Saturday, November 23, 2013

  Actual Average Record
Temperature  
Mean Temperature 31 °F 44 °F  
Max Temperature 42 °F 53 °F 70 °F (1965)
Min Temperature 19 °F 34 °F 12 °F (1950)
Degree Days  
Heating Degree Days 34 21  
Month to date heating degree days 417 388  
Since 1 July heating degree days 690 691  
Cooling Degree Days 0 0  
Month to date cooling degree days 0 0  
Year to date cooling degree days 1073 1352  
Moisture  
Dew Point 18 °F    
Average Humidity 62    
Maximum Humidity 89    
Minimum Humidity 34    
Precipitation  
Precipitation 0.00 in 0.15 in 2.42 in (1951)
Month to date precipitation 4.49 3.47  
Year to date precipitation 51.88 41.47  
Sea Level Pressure  
Sea Level Pressure 30.59 in    
Wind  
Wind Speed 12 mph (North)    
Max Wind Speed 20 mph    
Max Gust Speed 27 mph    
Visibility 10 miles    
Events Snow    
T = Trace of Precipitation, MM = Missing Value Source: NWS Daily Summary

Daily Weather History Graph

Daily Weather History Graph

Search for Another Location

Airport or City:

Trip Planner

Search our weather history database for the weather conditions in past years. The results will help you decide how hot, cold, wet, or windy it might be!

Date:

Astronomy

Nov. 23, 2013 Rise Set
Actual Time 6:54 AM CST 4:53 PM CST
Civil Twilight 6:26 AM CST 5:21 PM CST
Nautical Twilight 5:54 AM CST 5:53 PM CST
Astronomical Twilight 5:23 AM CST 6:24 PM CST
Moon 10:19 PM CST (11/23) 11:14 AM CST (11/23)
Length of Visible Light 10h 55m
Length of Day
9h 59m
Waning Gibbous, 69% of the Moon is Illuminated
Nov 23
Waning Gibbous
Nov 25
Last Quarter
Dec 2
New
Dec 9
First Quarter
Dec 17
Full

Hourly Weather History & Observations

Time (CST) Temp. Windchill Dew Point Humidity Pressure Visibility Wind Dir Wind Speed Gust Speed Precip Events Conditions
12:53 AM 33.1 °F 24.9 °F 28.9 °F 85% 30.51 in 10.0 mi North 10.4 mph - N/A   Overcast
1:53 AM 34.0 °F 24.2 °F 28.9 °F 82% 30.51 in 10.0 mi NE 15.0 mph - N/A   Overcast
2:53 AM 33.1 °F 26.1 °F 28.9 °F 85% 30.51 in 10.0 mi North 8.1 mph - N/A   Overcast
3:53 AM 33.1 °F 23.9 °F 28.0 °F 82% 30.51 in 10.0 mi North 12.7 mph - N/A   Overcast
4:53 AM 32.0 °F 24.8 °F 28.0 °F 85% 30.53 in 10.0 mi North 8.1 mph - N/A   Mostly Cloudy
5:53 AM 30.9 °F 22.8 °F 27.0 °F 85% 30.55 in 10.0 mi North 9.2 mph - N/A   Overcast
6:17 AM 30.9 °F 22.8 °F 26.1 °F 82% 30.52 in 10.0 mi North 9.2 mph - N/A   Scattered Clouds
6:53 AM 30.0 °F 21.7 °F 26.1 °F 85% 30.56 in 10.0 mi North 9.2 mph - N/A   Partly Cloudy
7:53 AM 33.1 °F 23.9 °F 23.0 °F 66% 30.59 in 10.0 mi North 12.7 mph - N/A   Clear
8:53 AM 34.0 °F 24.6 °F 18.0 °F 52% 30.59 in 10.0 mi North 13.8 mph - N/A   Overcast
9:53 AM 33.1 °F 24.9 °F 16.0 °F 50% 30.61 in 10.0 mi North 10.4 mph 21.9 mph N/A   Overcast
10:53 AM 35.1 °F 27.4 °F 14.0 °F 42% 30.61 in 10.0 mi North 10.4 mph 20.7 mph N/A   Partly Cloudy
11:53 AM 37.9 °F 30.9 °F 14.0 °F 38% 30.58 in 10.0 mi North 10.4 mph - N/A   Partly Cloudy
12:53 PM 39.0 °F 29.9 °F 14.0 °F 36% 30.58 in 10.0 mi NNW 17.3 mph 24.2 mph N/A   Clear
1:53 PM 41.0 °F 33.5 °F 16.0 °F 36% 30.56 in 10.0 mi North 13.8 mph - N/A   Clear
2:53 PM 41.0 °F 33.9 °F 15.1 °F 35% 30.57 in 10.0 mi North 12.7 mph 21.9 mph N/A   Clear
3:53 PM 37.9 °F 29.2 °F 16.0 °F 41% 30.58 in 9.0 mi NNW 15.0 mph 20.7 mph 0.00 in Snow Light Snow
4:53 PM 32.0 °F 22.1 °F 10.9 °F 42% 30.61 in 10.0 mi North 13.8 mph 23.0 mph 0.00 in   Clear
5:53 PM 28.9 °F 18.6 °F 10.9 °F 47% 30.63 in 10.0 mi North 12.7 mph 19.6 mph N/A   Clear
6:53 PM 28.0 °F 18.1 °F 8.1 °F 43% 30.65 in 10.0 mi North 11.5 mph 21.9 mph N/A   Clear
7:53 PM 26.1 °F 16.2 °F 9.0 °F 49% 30.66 in 10.0 mi NNE 10.4 mph 21.9 mph N/A   Clear
8:53 PM 24.1 °F 13.7 °F 8.1 °F 51% 30.67 in 10.0 mi North 10.4 mph - N/A   Clear
9:53 PM 21.9 °F 9.2 °F 8.1 °F 55% 30.68 in 10.0 mi NNE 13.8 mph - N/A   Clear
10:53 PM 19.9 °F 7.9 °F 9.0 °F 62% 30.68 in 10.0 mi North 11.5 mph - N/A   Clear
11:53 PM 19.0 °F 6.1 °F 9.0 °F 65% 30.69 in 10.0 mi NNE 12.7 mph - N/A   Clear